Weather History for KTBN - July, 2012

Change the Weather History Date:

Friday, July 6, 2012

  Actual Average Record
Temperature  
Mean Temperature 88 °F -  
Max Temperature 104 °F 84 °F 104 °F (2012)
Min Temperature 72 °F 68 °F 59 °F (2005)
Cooling Degree Days 23    
Growing Degree Days 38 (Base 50)    
Moisture  
Dew Point 65 °F    
Average Humidity 52    
Maximum Humidity 80    
Minimum Humidity 23    
Precipitation  
Precipitation 0.00 in - - ()
Sea Level Pressure  
Sea Level Pressure 29.93 in    
Wind  
Wind Speed 4 mph (SSW)    
Max Wind Speed 14 mph    
Max Gust Speed -    
Visibility 10 miles    
Events      
Averages and records for this station are not official NWS values.
T = Trace of Precipitation, MM = Missing Value Source: NWS Daily Summary

Daily Weather History Graph

Daily Weather History Graph

Search for Another Location

Airport or City:

Trip Planner

Search our weather history database for the weather conditions in past years. The results will help you decide how hot, cold, wet, or windy it might be!

Date:

Astronomy

Jul. 06, 2012 Rise Set
Actual Time 5:53 AM CDT 8:33 PM CDT
Civil Twilight 5:22 AM CDT 9:04 PM CDT
Nautical Twilight 4:43 AM CDT 9:42 PM CDT
Astronomical Twilight 4:00 AM CDT 10:25 PM CDT
Moon 10:27 PM CDT (7/6) 9:09 AM CDT (7/6)
Length of Visible Light 15h 41m
Length of Day
14h 40m
Waning Gibbous, 89% of the Moon is Illuminated
Jul 6
Waning Gibbous
Jul 10
Last Quarter
Jul 18
New
Jul 26
First Quarter
Aug 1
Full

Hourly Weather History & Observations

Time (CDT) Temp. Heat Index Dew Point Humidity Pressure Visibility Wind Dir Wind Speed Gust Speed Precip Events Conditions
12:55 AM 79.0 °F - 69.6 °F 73% 29.91 in 10.0 mi South 3.5 mph - N/A   Scattered Clouds
1:55 AM 78.8 °F - 67.1 °F 67% 29.90 in 10.0 mi Calm Calm - N/A   Clear
2:55 AM 77.5 °F - 66.4 °F 68% 29.91 in 10.0 mi Calm Calm - N/A   Clear
3:55 AM 76.5 °F - 65.8 °F 70% 29.91 in 10.0 mi SW 4.6 mph - N/A   Clear
4:55 AM 72.1 °F - 65.8 °F 80% 29.93 in 10.0 mi West 4.6 mph - N/A   Clear
5:55 AM 74.1 °F - 65.3 °F 74% 29.94 in 10.0 mi West 4.6 mph - N/A   Clear
6:55 AM 75.4 °F - 67.5 °F 76% 29.95 in 10.0 mi Calm Calm - N/A   Clear
7:55 AM 79.0 °F - 67.8 °F 69% 29.96 in 10.0 mi West 3.5 mph - N/A   Clear
8:55 AM 84.2 °F 87.9 °F 68.7 °F 60% 29.97 in 10.0 mi West 5.8 mph - N/A   Clear
9:55 AM 90.0 °F 93.2 °F 67.3 °F 47% 29.98 in 10.0 mi Variable 4.6 mph - N/A   Clear
10:55 AM 94.8 °F 97.1 °F 64.9 °F 37% 29.97 in 10.0 mi NW 9.2 mph - N/A   Clear
11:55 AM 96.6 °F 98.7 °F 63.9 °F 34% 29.96 in 10.0 mi NNE 6.9 mph - N/A   Clear
12:55 PM 98.8 °F 100.3 °F 62.8 °F 30% 29.95 in 10.0 mi Variable 5.8 mph - N/A   Partly Cloudy
1:55 PM 101.3 °F 102.2 °F 61.0 °F 26% 29.93 in 10.0 mi Variable 4.6 mph - N/A   Partly Cloudy
2:55 PM 101.8 °F 102.4 °F 59.5 °F 25% 29.91 in 10.0 mi Variable 3.5 mph - N/A   Partly Cloudy
3:55 PM 104.0 °F 104.6 °F 59.9 °F 23% 29.88 in 10.0 mi NNW 6.9 mph - N/A   Partly Cloudy
4:55 PM 103.5 °F 104.4 °F 59.7 °F 24% 29.88 in 10.0 mi Variable 4.6 mph - N/A   Clear
5:42 PM 95.0 °F 97.0 °F 64.4 °F 36% 29.90 in 10.0 mi East 13.8 mph - N/A   Mostly Cloudy
5:55 PM 91.2 °F 94.1 °F 66.7 °F 44% 29.91 in 10.0 mi East 12.7 mph - N/A   Mostly Cloudy
6:55 PM 91.4 °F 94.9 °F 67.1 °F 45% 29.91 in 10.0 mi SE 8.1 mph - N/A   Mostly Cloudy
7:55 PM 89.6 °F 92.2 °F 66.0 °F 46% 29.91 in 10.0 mi South 8.1 mph - N/A   Mostly Cloudy
8:55 PM 86.4 °F 88.7 °F 66.4 °F 51% 29.91 in 10.0 mi SSE 6.9 mph - N/A   Mostly Cloudy
9:55 PM 84.4 °F 87.1 °F 67.1 °F 56% 29.93 in 10.0 mi Calm Calm - N/A   Overcast
10:55 PM 81.3 °F 84.0 °F 67.8 °F 63% 29.94 in 10.0 mi Calm Calm - N/A   Scattered Clouds
11:55 PM 79.5 °F - 68.5 °F 69% 29.94 in 10.0 mi South 4.6 mph - N/A   Scattered Clouds